Lafayette, IN

3:43 AM EDT on April 22, 2018 (GMT -0400)
Purdue Univ

Weather History for KLAF - January, 2014

Change the Weather History Date:

Wednesday, January 8, 2014

  Actual Average Record
Temperature  
Mean Temperature 12 °F 26 °F  
Max Temperature 18 °F 34 °F 62 °F (1965)
Min Temperature 5 °F 19 °F -13 °F (1968)
Degree Days  
Heating Degree Days 53 39  
Month to date heating degree days 312 308  
Since 1 July heating degree days 2650 2483  
Cooling Degree Days 0 0  
Month to date cooling degree days 0 0  
Year to date cooling degree days 0 0  
Moisture  
Dew Point 7 °F    
Average Humidity 79    
Maximum Humidity 84    
Minimum Humidity 73    
Precipitation  
Precipitation T in 0.06 in 0.66 in (1965)
Month to date precipitation 0.19 0.52  
Year to date precipitation 0.19 0.52  
Sea Level Pressure  
Sea Level Pressure 30.42 in    
Wind  
Wind Speed 3 mph (NW)    
Max Wind Speed 8 mph    
Max Gust Speed 10 mph    
Visibility 10 miles    
Events Snow    
T = Trace of Precipitation, MM = Missing Value Source: NWS Daily Summary

Daily Weather History Graph

Daily Weather History Graph

Search for Another Location

Airport or City:

Astronomy

Jan. 08, 2014 Rise Set
Actual Time 8:10 AM EST 5:38 PM EST
Civil Twilight 7:40 AM EST 6:08 PM EST
Nautical Twilight 7:06 AM EST 6:42 PM EST
Astronomical Twilight 6:33 AM EST 7:15 PM EST
Moon 12:31 PM EST (1/8) 1:15 AM EST (1/8)
Length of Visible Light 10h 28m
Length of Day
9h 27m
First Quarter, 56% of the Moon is Illuminated
Jan 8
First Quarter
Jan 15
Full
Jan 24
Last Quarter
Jan 30
New
Feb 6
First Quarter

Hourly Weather History & Observations

Time (EST) Temp. Windchill Dew Point Humidity Pressure Visibility Wind Dir Wind Speed Gust Speed Precip Events Conditions
12:54 AM 6.1 °F -4.3 °F -0.9 °F 73% 30.34 in 10.0 mi SSE 5.8 mph - N/A   Clear
1:54 AM 5.0 °F -2.1 °F -0.9 °F 76% 30.34 in 10.0 mi SE 3.5 mph - N/A   Clear
2:54 AM 6.1 °F - -0.0 °F 76% 30.35 in 10.0 mi Calm Calm - N/A   Partly Cloudy
3:54 AM 7.0 °F 0.1 °F 1.0 °F 77% 30.35 in 10.0 mi SSE 3.5 mph - N/A   Partly Cloudy
4:54 AM 7.0 °F - 1.9 °F 80% 30.35 in 10.0 mi Calm Calm - N/A   Clear
5:54 AM 9.0 °F - 3.0 °F 77% 30.34 in 10.0 mi Calm Calm - N/A   Clear
6:54 AM 10.0 °F - 3.9 °F 76% 30.35 in 10.0 mi Calm Calm - N/A   Clear
7:54 AM 10.0 °F - 5.0 °F 80% 30.36 in 10.0 mi Calm Calm - N/A   Clear
8:54 AM 8.1 °F - 3.9 °F 83% 30.38 in 10.0 mi Calm Calm - N/A   Overcast
9:54 AM 12.9 °F - 8.1 °F 81% 30.41 in 10.0 mi Calm Calm - N/A   Mostly Cloudy
10:54 AM 15.1 °F 7.7 °F 9.0 °F 77% 30.43 in 10.0 mi West 4.6 mph - N/A   Overcast
11:54 AM 16.0 °F 7.4 °F 9.0 °F 74% 30.43 in 10.0 mi West 5.8 mph - N/A   Overcast
12:54 PM 16.0 °F 10.4 °F 10.0 °F 77% 30.41 in 4.0 mi West 3.5 mph - 0.00 in Snow Light Snow
1:54 PM 17.1 °F 10.0 °F 10.0 °F 74% 30.40 in 10.0 mi West 4.6 mph - 0.00 in   Scattered Clouds
2:54 PM 17.1 °F 11.7 °F 10.0 °F 74% 30.42 in 10.0 mi SW 3.5 mph - N/A   Overcast
3:54 PM 18.0 °F 8.7 °F 10.9 °F 74% 30.45 in 10.0 mi NW 6.9 mph - N/A   Overcast
4:54 PM 16.0 °F 6.3 °F 10.9 °F 81% 30.46 in 7.0 mi NW 6.9 mph - 0.00 in Snow Light Snow
5:54 PM 15.1 °F 5.2 °F 10.0 °F 80% 30.48 in 10.0 mi NW 6.9 mph - 0.00 in   Overcast
6:54 PM 15.1 °F 7.7 °F 10.0 °F 80% 30.48 in 10.0 mi NNW 4.6 mph - N/A   Overcast
7:54 PM 15.1 °F - 9.0 °F 77% 30.50 in 10.0 mi Calm Calm - N/A   Overcast
8:54 PM 15.1 °F 7.7 °F 9.0 °F 77% 30.52 in 10.0 mi North 4.6 mph - N/A   Overcast
9:54 PM 15.1 °F 9.4 °F 8.1 °F 74% 30.52 in 10.0 mi NNE 3.5 mph - N/A   Overcast
10:54 PM 16.0 °F 7.4 °F 9.0 °F 74% 30.53 in 10.0 mi NNE 5.8 mph - N/A   Overcast
11:54 PM 15.1 °F 7.7 °F 9.0 °F 77% 30.52 in 10.0 mi NE 4.6 mph - N/A   Overcast